Torna al catalogo

STARLINK-4395

AttivoComunicazioniSSO
NORAD 53199·PAYLOAD·🇺🇸 United States

Lanciato Jul 22, 2022 da Vandenberg Space Force Base

Loading…

Prossimi Passaggi (prossime 24 ore)

TLE

AggiornatoSource: CelesTrak SupGP

Epoca: Sep 14, 2026, 22:19 UTC

1 53199C 22084L   26257.93034722  .00004161  00000+0  12928-3 0  2578
2 53199  97.2844 313.6466 0001554  91.7284  91.8219 15.33412579    19

Traccia STARLINK-4395 in tempo reale con AllMySat

Download on the App Store